CW2972 Weather Reports


Display with metric or nautical units.
time (UTC)temp
F
wind
direction
speed
MPH
gust
MPH
rain 1hr
in
rain 24hr
in
rain mn
in
humidity
%
barometer
mb
20260508155820 71 171 1.0 3.0 0.00 0.04 0.01 50 1017.6
20260508155620 71 170 1.0 3.0 0.00 0.04 0.01 51 1017.7
20260508155420 71 171 1.0 3.0 0.00 0.04 0.01 50 1017.7
20260508155220 71 178 1.0 3.0 0.00 0.04 0.01 49 1017.7
20260508155020 71 190 1.0 3.0 0.00 0.04 0.01 49 1017.7
20260508154820 71 181 1.0 3.0 0.00 0.04 0.01 48 1017.7
20260508154620 71 186 1.0 3.0 0.00 0.04 0.01 50 1017.7
20260508154420 71 182 1.0 3.0 0.00 0.04 0.01 50 1017.7
20260508154220 71 175 1.0 3.0 0.00 0.04 0.01 53 1017.7
20260508154020 70 164 1.0 3.0 0.00 0.04 0.01 52 1017.7
20260508153820 70 163 1.0 3.0 0.00 0.04 0.01 51 1017.8
20260508153642 70 158 1.0 5.0 0.00 0.04 0.01 50 1017.8
20260508153420 70 158 1.0 5.0 0.00 0.04 0.01 53 1017.8
20260508153221 70 159 1.0 5.0 0.00 0.04 0.01 53 1017.9
20260508153020 70 164 1.0 5.0 0.00 0.04 0.01 51 1017.8
20260508152841 71 167 1.0 5.0 0.00 0.04 0.01 51 1017.9
20260508152620 71 170 1.0 3.0 0.00 0.04 0.01 54 1017.9
20260508152420 71 176 1.0 3.0 0.00 0.04 0.01 52 1017.9
20260508152220 71 179 1.0 3.0 0.00 0.04 0.01 52 1017.9
20260508152020 71 182 1.0 3.0 0.00 0.04 0.01 52 1017.9
20260508151820 71 184 1.0 3.0 0.00 0.04 0.01 51 1017.9
20260508151641 71 184 1.0 3.0 0.00 0.04 0.01 53 1017.9
20260508151421 71 176 1.0 2.0 0.00 0.04 0.01 54 1017.9
20260508151220 71 170 1.0 2.0 0.00 0.04 0.01 55 1017.9
20260508151020 71 166 1.0 2.0 0.00 0.04 0.01 53 1017.9
20260508150820 71 158 1.0 2.0 0.00 0.04 0.01 53 1017.9
20260508150641 70 161 1.0 2.0 0.00 0.04 0.01 55 1017.9
20260508150420 70 167 1.0 2.0 0.00 0.04 0.01 56 1017.9
20260508150220 70 164 1.0 2.0 0.00 0.04 0.01 56 1017.9
20260508150020 70 162 1.0 2.0 0.00 0.04 0.01 53 1017.9
20260508145820 70 172 1.0 2.0 0.00 0.04 0.01 54 1018.0
20260508145620 70 173 1.0 2.0 0.00 0.04 0.01 53 1018.0
20260508145420 70 181 1.0 2.0 0.00 0.05 0.01 53 1018.0
20260508145220 70 190 1.0 2.0 0.00 0.05 0.01 53 1018.0
20260508145020 70 202 1.0 2.0 0.00 0.05 0.01 53 1018.1
20260508144820 69 210 1.0 2.0 0.00 0.05 0.01 53 1018.0
20260508144620 69 213 1.0 3.0 0.00 0.05 0.01 54 1018.0
20260508144420 69 215 1.0 3.0 0.00 0.05 0.01 54 1018.1
20260508144220 69 215 1.0 3.0 0.00 0.05 0.01 55 1018.1
20260508144020 69 210 1.0 3.0 0.00 0.05 0.01 54 1018.1
20260508143841 69 205 1.0 3.0 0.00 0.05 0.01 54 1018.1
20260508143620 69 181 1.0 2.0 0.00 0.05 0.01 56 1018.1
20260508143441 69 157 1.0 2.0 0.00 0.05 0.01 58 1018.2
20260508143220 68 159 1.0 2.0 0.00 0.05 0.01 58 1018.2
20260508143020 68 159 1.0 2.0 0.00 0.05 0.01 57 1018.2
20260508142841 68 160 1.0 2.0 0.00 0.05 0.01 57 1018.2
20260508142620 68 160 1.0 3.0 0.00 0.05 0.01 55 1018.3
20260508142420 68 166 1.0 3.0 0.00 0.05 0.01 55 1018.3
20260508142220 68 170 1.0 3.0 0.00 0.05 0.01 57 1018.3
20260508142020 68 166 1.0 3.0 0.00 0.05 0.01 56 1018.3
20260508141841 68 165 1.0 3.0 0.00 0.05 0.01 55 1018.3
20260508141621 68 167 1.0 2.0 0.00 0.05 0.01 55 1018.3
20260508141420 68 171 1.0 2.0 0.00 0.05 0.01 57 1018.3
20260508141220 67 184 1.0 2.0 0.00 0.05 0.01 57 1018.3
20260508141020 67 194 1.0 2.0 0.00 0.05 0.01 58 1018.2
20260508140820 67 190 1.0 2.0 0.00 0.05 0.01 59 1018.2
20260508140641 66 180 1.0 2.0 0.00 0.05 0.01 59 1018.2
20260508140420 66 173 1.0 2.0 0.00 0.05 0.01 58 1018.3
20260508140220 66 160 1.0 2.0 0.00 0.05 0.01 59 1018.3
20260508140041 66 161 1.0 2.0 0.00 0.05 0.01 58 1018.3
20260508135820 66 167 1.0 2.0 0.01 0.05 0.01 59 1018.3
20260508135641 66 165 1.0 2.0 0.01 0.05 0.01 60 1018.3
20260508135420 66 164 1.0 2.0 0.01 0.05 0.01 59 1018.4
20260508135220 66 169 1.0 2.0 0.01 0.05 0.01 60 1018.4
20260508135041 66 168 1.0 2.0 0.01 0.05 0.01 60 1018.4
20260508134820 66 164 0.0 2.0 0.01 0.05 0.01 59 1018.5
20260508134620 66 168 0.0 2.0 0.01 0.05 0.01 60 1018.5
20260508134420 66 172 0.0 2.0 0.01 0.05 0.01 62 1018.4
20260508134220 66 158 0.0 2.0 0.01 0.05 0.01 64 1018.4
20260508134020 66 158 0.0 2.0 0.01 0.05 0.01 64 1018.4
20260508133842 65 155 0.0 1.0 0.01 0.05 0.01 66 1018.4
20260508133620 64 153 0.0 1.0 0.01 0.05 0.01 68 1018.4
20260508133441 64 151 0.0 1.0 0.01 0.05 0.01 68 1018.4
20260508133220 63 148 0.0 1.0 0.01 0.05 0.01 69 1018.4
20260508133020 62 148 0.0 1.0 0.01 0.05 0.01 70 1018.4
20260508132820 62 153 0.0 2.0 0.01 0.05 0.01 70 1018.5
20260508132620 61 153 0.0 2.0 0.01 0.05 0.01 69 1018.4
20260508132420 61 153 0.0 2.0 0.01 0.05 0.01 70 1018.5
20260508132220 61 163 0.0 2.0 0.01 0.05 0.01 73 1018.4
20260508132020 60 163 0.0 2.0 0.01 0.05 0.01 73 1018.5
20260508131841 59 196 0.0 1.0 0.01 0.05 0.01 77 1018.4
20260508131620 58 196 0.0 1.0 0.01 0.05 0.01 81 1018.5
20260508131421 57 196 0.0 1.0 0.01 0.05 0.01 81 1018.4
20260508131220 57 196 0.0 1.0 0.01 0.05 0.01 83 1018.4
20260508131020 56 196 0.0 1.0 0.01 0.05 0.01 85 1018.4
20260508130820 55 196 0.0 1.0 0.01 0.05 0.01 88 1018.4
20260508130620 54 196 0.0 1.0 0.01 0.05 0.01 91 1018.5
20260508130420 53 196 0.0 1.0 0.01 0.05 0.01 92 1018.4
20260508130221 53 196 0.0 1.0 0.01 0.05 0.01 92 1018.5
20260508130020 52 196 0.0 1.0 0.01 0.05 0.01 93 1018.5
20260508125820 51 196 0.0 1.0 0.00 0.04 0.00 94 1018.5
20260508125621 50 196 0.0 1.0 0.00 0.04 0.00 95 1018.5
20260508125420 49 0 0.0 0.0 0.00 0.04 0.00 96 1018.5
20260508125220 49 0 0.0 0.0 0.00 0.04 0.00 96 1018.4
20260508125021 48 0 0.0 0.0 0.00 0.04 0.00 96 1018.4
20260508124820 48 0 0.0 0.0 0.00 0.05 0.00 96 1018.4
20260508124620 47 0 0.0 0.0 0.00 0.05 0.00 97 1018.4
20260508124420 47 0 0.0 0.0 0.00 0.05 0.00 97 1018.4
20260508124220 47 0 0.0 0.0 0.00 0.05 0.00 97 1018.4
20260508124041 46 0 0.0 0.0 0.00 0.05 0.00 97 1018.4
20260508123820 46 0 0.0 0.0 0.00 0.05 0.00 98 1018.4
20260508123620 46 0 0.0 0.0 0.00 0.05 0.00 98 1018.4
20260508123420 46 0 0.0 0.0 0.00 0.05 0.00 98 1018.3
20260508123221 46 0 0.0 0.0 0.00 0.05 0.00 98 1018.3
20260508123041 45 0 0.0 0.0 0.00 0.05 0.00 98 1018.3
20260508122841 45 0 0.0 0.0 0.00 0.05 0.00 98 1018.3
20260508122620 45 0 0.0 0.0 0.00 0.05 0.00 98 1018.3
20260508122420 45 0 0.0 0.0 0.00 0.05 0.00 98 1018.3
20260508122220 44 0 0.0 0.0 0.00 0.05 0.00 98 1018.3
20260508122020 44 0 0.0 0.0 0.00 0.05 0.00 98 1018.2
20260508121820 44 0 0.0 0.0 0.00 0.05 0.00 98 1018.3
20260508121641 44 0 0.0 0.0 0.00 0.05 0.00 98 1018.2
20260508121420 44 0 0.0 0.0 0.00 0.05 0.00 98 1018.2
20260508121221 44 0 0.0 0.0 0.00 0.05 0.00 98 1018.2
20260508121020 43 0 0.0 0.0 0.00 0.05 0.00 98 1018.1
20260508120820 43 0 0.0 0.0 0.00 0.05 0.00 98 1018.2
20260508120620 43 0 0.0 0.0 0.00 0.05 0.00 97 1018.2
20260508120420 43 0 0.0 0.0 0.00 0.05 0.00 97 1018.2
20260508120220 43 0 0.0 0.0 0.00 0.05 0.00 97 1018.2
20260508120020 43 0 0.0 0.0 0.00 0.05 0.00 97 1018.2
20260508115820 43 0 0.0 0.0 0.00 0.05 0.00 97 1018.2
20260508115620 42 0 0.0 0.0 0.00 0.05 0.00 97 1018.2
20260508115441 42 0 0.0 0.0 0.00 0.05 0.00 97 1018.2
20260508115220 42 0 0.0 0.0 0.00 0.05 0.00 97 1018.1
20260508115020 42 0 0.0 0.0 0.00 0.05 0.00 97 1018.1
20260508114820 42 0 0.0 0.0 0.00 0.05 0.00 97 1018.0
20260508114620 42 0 0.0 0.0 0.00 0.05 0.00 97 1018.0
20260508114420 42 0 0.0 0.0 0.00 0.05 0.00 97 1017.9
20260508114221 42 0 0.0 0.0 0.00 0.05 0.00 97 1017.9
20260508114041 41 0 0.0 0.0 0.00 0.05 0.00 97 1017.9
20260508113820 41 0 0.0 0.0 0.00 0.05 0.00 97 1017.9
20260508113620 41 0 0.0 0.0 0.00 0.05 0.00 97 1017.9
20260508113420 41 0 0.0 0.0 0.00 0.05 0.00 97 1017.8
20260508113220 41 0 0.0 0.0 0.00 0.05 0.00 97 1017.8
20260508113021 41 0 0.0 0.0 0.00 0.05 0.00 97 1017.8
20260508112820 41 0 0.0 0.0 0.00 0.05 0.00 97 1017.7
20260508112620 41 0 0.0 0.0 0.00 0.05 0.00 97 1017.7
20260508112441 41 0 0.0 0.0 0.00 0.05 0.00 97 1017.7
20260508112220 41 0 0.0 0.0 0.00 0.05 0.00 96 1017.8
20260508112020 41 0 0.0 0.0 0.00 0.05 0.00 96 1017.7
20260508111820 41 0 0.0 0.0 0.00 0.05 0.00 96 1017.7
20260508111641 41 0 0.0 0.0 0.00 0.05 0.00 96 1017.7
20260508111420 40 0 0.0 0.0 0.00 0.05 0.00 96 1017.7
20260508111220 40 0 0.0 0.0 0.00 0.05 0.00 96 1017.7
20260508111020 40 0 0.0 0.0 0.00 0.05 0.00 96 1017.7
20260508110820 40 0 0.0 0.0 0.00 0.05 0.00 96 1017.7
20260508110622 40 0 0.0 0.0 0.00 0.05 0.00 96 1017.6
20260508110420 40 0 0.0 0.0 0.00 0.05 0.00 96 1017.6
20260508110220 40 0 0.0 0.0 0.00 0.05 0.00 96 1017.6
20260508110020 40 0 0.0 0.0 0.00 0.05 0.00 96 1017.6
20260508105820 40 0 0.0 0.0 0.00 0.05 0.00 96 1017.5
20260508105620 40 0 0.0 0.0 0.00 0.05 0.00 96 1017.5
20260508105420 40 0 0.0 0.0 0.00 0.05 0.00 96 1017.5
20260508105220 40 0 0.0 0.0 0.00 0.05 0.00 96 1017.5
20260508105020 40 0 0.0 0.0 0.00 0.05 0.00 96 1017.5
20260508104820 40 0 0.0 0.0 0.00 0.05 0.00 96 1017.5
20260508104620 40 0 0.0 0.0 0.00 0.05 0.00 96 1017.4
20260508104420 41 0 0.0 0.0 0.00 0.05 0.00 96 1017.4
20260508104220 41 0 0.0 0.0 0.00 0.05 0.00 96 1017.4
20260508104020 41 0 0.0 0.0 0.00 0.05 0.00 96 1017.4
20260508103821 41 0 0.0 0.0 0.00 0.05 0.00 96 1017.4
20260508103620 41 0 0.0 0.0 0.00 0.05 0.00 96 1017.4
20260508103420 41 0 0.0 0.0 0.00 0.05 0.00 96 1017.4
20260508103221 41 0 0.0 0.0 0.00 0.05 0.00 96 1017.4
20260508103020 41 0 0.0 0.0 0.00 0.05 0.00 96 1017.4
20260508102820 41 0 0.0 0.0 0.00 0.05 0.00 96 1017.4
20260508102620 41 0 0.0 0.0 0.00 0.05 0.00 95 1017.4
20260508102420 41 0 0.0 0.0 0.00 0.05 0.00 96 1017.4
20260508102220 41 0 0.0 0.0 0.00 0.05 0.00 96 1017.4
20260508102041 41 0 0.0 0.0 0.00 0.05 0.00 96 1017.4
20260508101820 41 0 0.0 0.0 0.00 0.05 0.00 96 1017.4
20260508101621 41 0 0.0 0.0 0.00 0.05 0.00 96 1017.4
20260508101420 41 0 0.0 0.0 0.00 0.05 0.00 96 1017.4
20260508101221 41 0 0.0 0.0 0.00 0.05 0.00 96 1017.4
20260508101020 41 0 0.0 0.0 0.00 0.05 0.00 96 1017.4
20260508100820 41 0 0.0 0.0 0.00 0.06 0.00 96 1017.3
20260508100620 41 0 0.0 0.0 0.00 0.06 0.00 96 1017.3
20260508100420 41 0 0.0 0.0 0.00 0.06 0.00 96 1017.3
20260508100243 41 0 0.0 0.0 0.00 0.06 0.00 96 1017.3
20260508100020 41 0 0.0 0.0 0.00 0.06 0.00 96 1017.3
20260508095822 40 0 0.0 0.0 0.00 0.06 0.00 95 1017.3
20260508095620 41 0 0.0 0.0 0.00 0.06 0.00 95 1017.3
20260508095420 41 0 0.0 0.0 0.00 0.06 0.00 95 1017.3
20260508095221 41 0 0.0 0.0 0.00 0.06 0.00 95 1017.2
20260508095021 41 0 0.0 0.0 0.00 0.06 0.00 95 1017.2
20260508094821 41 0 0.0 0.0 0.00 0.06 0.00 95 1017.2
20260508094621 41 0 0.0 0.0 0.00 0.06 0.00 95 1017.2
20260508094420 41 0 0.0 0.0 0.00 0.06 0.00 95 1017.2
20260508094221 41 0 0.0 0.0 0.00 0.06 0.00 95 1017.2
20260508094021 41 0 0.0 0.0 0.00 0.06 0.00 95 1017.3
20260508093820 41 0 0.0 0.0 0.00 0.06 0.00 95 1017.2
20260508093620 41 0 0.0 0.0 0.00 0.06 0.00 95 1017.2
20260508093441 41 0 0.0 0.0 0.00 0.06 0.00 95 1017.2
20260508093241 41 0 0.0 0.0 0.00 0.06 0.00 95 1017.2
20260508093020 41 0 0.0 0.0 0.00 0.06 0.00 95 1017.2
20260508092820 41 0 0.0 0.0 0.00 0.06 0.00 95 1017.3
20260508092641 41 0 0.0 0.0 0.00 0.06 0.00 95 1017.2
20260508092420 41 0 0.0 0.0 0.00 0.06 0.00 95 1017.2
20260508092220 41 0 0.0 0.0 0.00 0.06 0.00 95 1017.2
20260508092041 41 0 0.0 0.0 0.00 0.06 0.00 95 1017.2
20260508091820 41 0 0.0 0.0 0.00 0.06 0.00 95 1017.2
20260508091622 41 0 0.0 0.0 0.00 0.06 0.00 95 1017.2
20260508091442 41 0 0.0 0.0 0.00 0.06 0.00 95 1017.2
20260508091220 41 0 0.0 0.0 0.00 0.06 0.00 95 1017.2
20260508091043 41 0 0.0 0.0 0.00 0.06 0.00 95 1017.2
20260508090820 41 0 0.0 0.0 0.00 0.06 0.00 96 1017.2
20260508090620 41 0 0.0 0.0 0.00 0.06 0.00 96 1017.1
20260508090420 41 0 0.0 0.0 0.00 0.06 0.00 95 1017.2
20260508090220 41 0 0.0 0.0 0.00 0.06 0.00 95 1017.1
20260508090021 41 0 0.0 0.0 0.00 0.06 0.00 95 1017.2
20260508085820 41 0 0.0 0.0 0.00 0.06 0.00 95 1017.2
20260508085620 41 0 0.0 0.0 0.00 0.06 0.00 95 1017.2
20260508085441 41 0 0.0 0.0 0.00 0.06 0.00 95 1017.1
20260508085220 41 0 0.0 0.0 0.00 0.06 0.00 95 1017.2
20260508085020 41 0 0.0 0.0 0.00 0.06 0.00 95 1017.2
20260508084841 41 0 0.0 0.0 0.00 0.06 0.00 95 1017.2
20260508084620 41 0 0.0 0.0 0.00 0.06 0.00 95 1017.2
20260508084420 41 0 0.0 0.0 0.00 0.06 0.00 95 1017.2
20260508084220 41 0 0.0 0.0 0.00 0.06 0.00 95 1017.2
20260508084020 41 0 0.0 0.0 0.00 0.06 0.00 95 1017.2
20260508083820 41 0 0.0 0.0 0.00 0.06 0.00 95 1017.2
20260508083622 41 0 0.0 0.0 0.00 0.06 0.00 95 1017.3
20260508083420 41 0 0.0 0.0 0.00 0.06 0.00 94 1017.4
20260508083221 41 0 0.0 0.0 0.00 0.06 0.00 94 1017.4
20260508083043 41 0 0.0 0.0 0.00 0.06 0.00 94 1017.4
20260508082841 41 0 0.0 0.0 0.00 0.06 0.00 94 1017.3
20260508082620 41 0 0.0 0.0 0.00 0.06 0.00 94 1017.3
20260508082420 41 0 0.0 0.0 0.00 0.06 0.00 94 1017.4
20260508082220 41 0 0.0 0.0 0.00 0.06 0.00 94 1017.4
20260508082020 41 0 0.0 0.0 0.00 0.06 0.00 94 1017.3
20260508081820 41 0 0.0 0.0 0.00 0.06 0.00 94 1017.3
20260508081620 41 0 0.0 0.0 0.00 0.06 0.00 94 1017.4
20260508081421 42 0 0.0 0.0 0.00 0.06 0.00 94 1017.5
20260508081220 42 0 0.0 0.0 0.00 0.06 0.00 94 1017.6
20260508081020 42 0 0.0 0.0 0.00 0.06 0.00 94 1017.6
20260508080841 42 0 0.0 0.0 0.00 0.06 0.00 94 1017.6
20260508080620 42 0 0.0 0.0 0.00 0.06 0.00 94 1017.5
20260508080420 42 0 0.0 0.0 0.00 0.06 0.00 94 1017.5
20260508080220 42 0 0.0 0.0 0.00 0.06 0.00 94 1017.5
20260508080021 42 0 0.0 0.0 0.00 0.06 0.00 94 1017.5
20260508075820 42 0 0.0 0.0 0.00 0.06 0.00 94 1017.5
20260508075620 42 0 0.0 0.0 0.00 0.06 0.00 94 1017.5
20260508075420 42 0 0.0 0.0 0.00 0.06 0.00 94 1017.5
20260508075220 42 0 0.0 0.0 0.00 0.06 0.00 94 1017.5
20260508075020 42 0 0.0 0.0 0.00 0.06 0.00 94 1017.5
20260508074822 42 0 0.0 0.0 0.00 0.06 0.00 94 1017.5
20260508074620 42 0 0.0 0.0 0.00 0.06 0.00 94 1017.5
20260508074420 42 0 0.0 0.0 0.00 0.07 0.00 94 1017.6
20260508074220 42 0 0.0 0.0 0.00 0.07 0.00 94 1017.5
20260508074022 42 0 0.0 0.0 0.00 0.07 0.00 94 1017.5
20260508073841 42 0 0.0 0.0 0.00 0.07 0.00 94 1017.5
20260508073620 42 0 0.0 0.0 0.00 0.07 0.00 94 1017.6
20260508073421 42 0 0.0 0.0 0.00 0.07 0.00 94 1017.6
20260508073223 42 0 0.0 0.0 0.00 0.07 0.00 94 1017.6
20260508073020 42 0 0.0 0.0 0.00 0.07 0.00 94 1017.6
20260508072820 42 0 0.0 0.0 0.00 0.07 0.00 93 1017.6
20260508072642 42 0 0.0 0.0 0.00 0.07 0.00 93 1017.6
20260508072420 43 0 0.0 0.0 0.00 0.07 0.00 94 1017.6
20260508072220 43 0 0.0 0.0 0.00 0.07 0.00 94 1017.6
20260508072020 43 0 0.0 0.0 0.00 0.07 0.00 94 1017.6
20260508071820 43 0 0.0 0.0 0.00 0.07 0.00 94 1017.6
20260508071642 43 0 0.0 0.0 0.00 0.07 0.00 94 1017.5
20260508071420 43 0 0.0 0.0 0.00 0.07 0.00 94 1017.6
20260508071242 43 0 0.0 0.0 0.00 0.07 0.00 93 1017.5
20260508071020 43 0 0.0 0.0 0.00 0.07 0.00 93 1017.5
20260508070820 43 0 0.0 0.0 0.00 0.07 0.00 93 1017.5
20260508070620 43 0 0.0 0.0 0.00 0.07 0.00 93 1017.5
20260508070420 43 0 0.0 0.0 0.00 0.07 0.00 93 1017.5
20260508070221 43 0 0.0 0.0 0.00 0.07 0.00 93 1017.6
20260508070022 43 0 0.0 0.0 0.00 0.07 0.00 93 1017.6
20260508065821 43 0 0.0 0.0 0.00 0.07 0.00 93 1017.6
20260508065620 43 0 0.0 0.0 0.00 0.07 0.00 93 1017.6
20260508065420 43 0 0.0 0.0 0.00 0.07 0.00 93 1017.6
20260508065220 43 0 0.0 0.0 0.00 0.07 0.00 93 1017.7
20260508065020 43 0 0.0 0.0 0.00 0.07 0.00 93 1017.7
20260508064821 43 0 0.0 0.0 0.00 0.07 0.00 93 1017.7
20260508064620 43 0 0.0 0.0 0.00 0.07 0.00 93 1017.8
20260508064421 43 0 0.0 0.0 0.00 0.07 0.00 93 1017.8
20260508064242 43 0 0.0 0.0 0.00 0.07 0.00 93 1017.8
20260508064020 43 0 0.0 0.0 0.00 0.07 0.00 92 1017.7
20260508063841 43 0 0.0 0.0 0.00 0.07 0.00 92 1017.8
20260508063641 43 0 0.0 0.0 0.00 0.07 0.00 92 1017.8
20260508063421 43 0 0.0 0.0 0.00 0.07 0.00 92 1017.7
20260508063242 43 0 0.0 0.0 0.00 0.07 0.00 92 1017.7
20260508063020 43 0 0.0 0.0 0.00 0.07 0.00 92 1017.7
20260508062822 43 0 0.0 0.0 0.00 0.07 0.00 92 1017.7
20260508062621 43 0 0.0 0.0 0.00 0.07 0.00 92 1017.7
20260508062420 43 0 0.0 0.0 0.00 0.07 0.00 92 1017.6
20260508062220 44 0 0.0 0.0 0.00 0.07 0.00 92 1017.6
20260508062020 44 0 0.0 0.0 0.00 0.07 0.00 92 1017.7
20260508061842 44 0 0.0 0.0 0.00 0.07 0.00 92 1017.7
20260508061643 44 0 0.0 0.0 0.00 0.07 0.00 92 1017.7
20260508061420 44 0 0.0 0.0 0.00 0.07 0.00 92 1017.7
20260508061222 44 0 0.0 0.0 0.00 0.07 0.00 92 1017.7
20260508061021 44 0 0.0 0.0 0.00 0.07 0.00 92 1017.7
20260508060821 44 0 0.0 0.0 0.00 0.07 0.00 92 1017.7
20260508060641 44 0 0.0 0.0 0.00 0.07 0.00 91 1017.8
20260508060420 44 0 0.0 0.0 0.00 0.07 0.00 91 1017.8
20260508060220 44 0 0.0 0.0 0.00 0.07 0.00 91 1017.9
20260508060021 44 0 0.0 0.0 0.00 0.07 0.00 91 1017.9
20260508055842 44 0 0.0 0.0 0.00 0.07 0.00 91 1017.8
20260508055620 44 0 0.0 0.0 0.00 0.07 0.00 91 1017.8
20260508055420 44 0 0.0 0.0 0.00 0.07 0.00 91 1017.7
20260508055220 44 0 0.0 0.0 0.00 0.07 0.00 91 1017.8
20260508055021 44 0 0.0 0.0 0.00 0.07 0.00 91 1017.7
20260508054842 44 0 0.0 0.0 0.00 0.07 0.00 91 1017.8
20260508054621 44 0 0.0 0.0 0.00 0.07 0.00 91 1017.8
20260508054420 44 0 0.0 0.0 0.00 0.07 0.00 91 1017.8
20260508054220 44 0 0.0 0.0 0.00 0.07 0.00 91 1017.7
20260508054020 44 0 0.0 0.0 0.00 0.08 0.00 91 1017.8
20260508053820 44 0 0.0 0.0 0.00 0.08 0.00 91 1017.8
20260508053620 44 0 0.0 0.0 0.00 0.08 0.00 90 1017.8
20260508053420 44 0 0.0 0.0 0.00 0.08 0.00 90 1017.7
20260508053220 44 0 0.0 0.0 0.00 0.08 0.00 90 1017.8
20260508053041 44 0 0.0 0.0 0.00 0.08 0.00 89 1017.8
20260508052820 44 0 0.0 0.0 0.00 0.08 0.00 89 1017.8
20260508052620 44 0 0.0 0.0 0.00 0.08 0.00 89 1017.8
20260508052420 44 0 0.0 0.0 0.00 0.08 0.00 89 1017.8
20260508052220 44 0 0.0 0.0 0.00 0.08 0.00 89 1017.8
20260508052020 44 0 0.0 0.0 0.00 0.08 0.00 89 1017.8
20260508051820 44 0 0.0 0.0 0.00 0.08 0.00 89 1017.8
20260508051622 44 0 0.0 0.0 0.00 0.08 0.00 90 1017.8
20260508051420 44 0 0.0 0.0 0.00 0.08 0.00 89 1017.9
20260508051220 45 0 0.0 0.0 0.00 0.08 0.00 89 1017.9
20260508051020 45 0 0.0 0.0 0.00 0.08 0.00 89 1017.9
20260508050820 45 0 0.0 0.0 0.00 0.08 0.00 89 1017.8
20260508050620 45 0 0.0 0.0 0.00 0.08 0.00 88 1017.8
20260508050421 45 0 0.0 0.0 0.00 0.08 0.00 88 1017.8
20260508050220 45 0 0.0 0.0 0.00 0.08 0.00 88 1017.8
20260508050021 45 0 0.0 0.0 0.00 0.08 0.00 88 1017.8
20260508045820 45 0 0.0 0.0 0.00 0.08 0.08 88 1017.8
20260508045620 45 0 0.0 0.0 0.00 0.08 0.08 88 1017.7
20260508045420 45 0 0.0 0.0 0.00 0.08 0.08 88 1017.7
20260508045220 45 0 0.0 0.0 0.00 0.08 0.08 88 1017.7
20260508045020 45 0 0.0 0.0 0.00 0.08 0.08 88 1017.8
20260508044820 45 0 0.0 0.0 0.00 0.08 0.08 88 1017.8
20260508044620 46 0 0.0 0.0 0.00 0.08 0.08 89 1017.8
20260508044420 46 0 0.0 0.0 0.00 0.08 0.08 89 1017.8
20260508044220 46 0 0.0 0.0 0.00 0.08 0.08 89 1017.9
20260508044021 46 0 0.0 0.0 0.00 0.08 0.08 89 1017.9
20260508043841 46 0 0.0 0.0 0.00 0.08 0.08 88 1017.9
20260508043641 46 0 0.0 0.0 0.00 0.08 0.08 88 1017.9
20260508043421 46 0 0.0 0.0 0.00 0.08 0.08 88 1017.9
20260508043221 46 0 0.0 0.0 0.00 0.08 0.08 87 1017.9
20260508043021 46 0 0.0 0.0 0.00 0.08 0.08 87 1017.9
20260508042842 46 0 0.0 0.0 0.00 0.08 0.08 87 1018.0
20260508042620 46 0 0.0 0.0 0.00 0.08 0.08 87 1018.0
20260508042420 46 0 0.0 0.0 0.00 0.08 0.08 87 1018.0
20260508042220 46 0 0.0 0.0 0.00 0.08 0.08 87 1018.0
20260508042021 46 0 0.0 0.0 0.00 0.08 0.08 87 1018.0
20260508041820 46 0 0.0 0.0 0.00 0.08 0.08 87 1017.9
20260508041621 46 0 0.0 0.0 0.00 0.08 0.08 87 1017.9
20260508041420 47 0 0.0 0.0 0.00 0.08 0.08 87 1018.0
20260508041220 47 0 0.0 0.0 0.00 0.08 0.08 86 1018.0
20260508041020 47 0 0.0 0.0 0.00 0.08 0.08 86 1017.9
20260508040820 47 0 0.0 0.0 0.00 0.08 0.08 86 1018.0
20260508040620 47 0 0.0 0.0 0.00 0.08 0.08 87 1018.0
20260508040420 47 0 0.0 0.0 0.00 0.08 0.08 87 1017.9
20260508040220 47 0 0.0 0.0 0.00 0.08 0.08 87 1017.9
20260508040020 47 0 0.0 0.0 0.00 0.08 0.08 87 1017.9
20260508035820 47 0 0.0 0.0 0.00 0.08 0.08 86 1017.9
20260508035620 47 0 0.0 0.0 0.00 0.08 0.08 86 1017.8
20260508035422 47 0 0.0 0.0 0.00 0.08 0.08 86 1017.8
20260508035221 48 0 0.0 0.0 0.00 0.08 0.08 86 1017.8
20260508035020 48 0 0.0 0.0 0.00 0.08 0.08 86 1017.8
20260508034820 48 0 0.0 0.0 0.00 0.09 0.08 85 1017.8
20260508034622 48 0 0.0 0.0 0.00 0.09 0.08 85 1017.7
20260508034420 48 0 0.0 0.0 0.00 0.09 0.08 85 1017.7
20260508034220 48 0 0.0 0.0 0.00 0.09 0.08 84 1017.7
20260508034021 48 0 0.0 0.0 0.00 0.09 0.08 84 1017.7
20260508033820 48 0 0.0 0.0 0.00 0.09 0.08 83 1017.7
20260508033641 48 0 0.0 0.0 0.00 0.09 0.08 83 1017.7
20260508033421 48 0 0.0 0.0 0.00 0.09 0.08 83 1017.7
20260508033221 48 0 0.0 0.0 0.00 0.09 0.08 84 1017.7
20260508033020 49 0 0.0 0.0 0.00 0.09 0.08 83 1017.7
20260508032820 49 0 0.0 0.0 0.00 0.09 0.08 83 1017.7
20260508032621 49 0 0.0 0.0 0.00 0.09 0.08 83 1017.7
20260508032421 49 0 0.0 0.0 0.00 0.09 0.08 83 1017.6
20260508032221 49 0 0.0 0.0 0.00 0.09 0.08 83 1017.6
20260508032042 49 0 0.0 0.0 0.00 0.09 0.08 83 1017.5
20260508031821 49 0 0.0 0.0 0.00 0.09 0.08 83 1017.6
20260508031620 49 0 0.0 0.0 0.00 0.09 0.08 83 1017.5
20260508031421 49 0 0.0 0.0 0.00 0.09 0.08 83 1017.5
20260508031220 49 0 0.0 0.0 0.00 0.09 0.08 83 1017.5
20260508031020 49 0 0.0 0.0 0.00 0.09 0.08 83 1017.5
20260508030821 49 0 0.0 0.0 0.00 0.09 0.08 82 1017.5
20260508030621 49 0 0.0 0.0 0.00 0.09 0.08 81 1017.5
20260508030421 49 0 0.0 0.0 0.00 0.09 0.08 81 1017.5
20260508030242 49 0 0.0 0.0 0.00 0.09 0.08 81 1017.5
20260508030020 49 0 0.0 0.0 0.00 0.09 0.08 80 1017.5
20260508025820 49 0 0.0 0.0 0.00 0.09 0.08 79 1017.4
20260508025620 49 0 0.0 0.0 0.00 0.09 0.08 79 1017.4
20260508025421 49 0 0.0 0.0 0.00 0.09 0.08 79 1017.4
20260508025220 50 0 0.0 0.0 0.00 0.09 0.08 79 1017.5
20260508025021 50 0 0.0 0.0 0.00 0.09 0.08 79 1017.5
20260508024820 50 0 0.0 0.0 0.00 0.09 0.08 78 1017.4
20260508024620 50 0 0.0 0.0 0.00 0.09 0.08 78 1017.4
20260508024420 50 0 0.0 0.0 0.00 0.09 0.08 77 1017.4
20260508024221 50 0 0.0 0.0 0.00 0.09 0.08 77 1017.4
20260508024022 50 0 0.0 0.0 0.00 0.09 0.08 77 1017.5
20260508023821 51 0 0.0 0.0 0.00 0.09 0.08 77 1017.5
20260508023621 51 0 0.0 0.0 0.00 0.09 0.08 75 1017.5
20260508023421 51 0 0.0 0.0 0.00 0.09 0.08 75 1017.6
20260508023221 51 0 0.0 0.0 0.00 0.09 0.08 75 1017.6
20260508023042 51 0 0.0 0.0 0.00 0.09 0.08 75 1017.7
20260508022821 52 0 0.0 0.0 0.00 0.09 0.08 74 1017.7
20260508022620 52 0 0.0 0.0 0.00 0.09 0.08 74 1017.7
20260508022441 52 0 0.0 0.0 0.00 0.09 0.08 74 1017.6
20260508022220 52 0 0.0 0.0 0.00 0.09 0.08 73 1017.7
20260508022020 52 0 0.0 0.0 0.00 0.09 0.08 73 1017.6
20260508021841 52 0 0.0 0.0 0.00 0.09 0.08 73 1017.6
20260508021621 53 0 0.0 0.0 0.00 0.09 0.08 74 1017.6
20260508021420 53 0 0.0 0.0 0.00 0.09 0.08 74 1017.6
20260508021220 53 0 0.0 0.0 0.00 0.09 0.08 73 1017.5
20260508021020 53 0 0.0 0.0 0.00 0.09 0.08 73 1017.5
20260508020821 53 0 0.0 0.0 0.00 0.10 0.08 72 1017.5
20260508020621 53 0 0.0 0.0 0.00 0.10 0.08 72 1017.4
20260508020420 53 0 0.0 0.0 0.00 0.10 0.08 71 1017.4
20260508020242 53 0 0.0 0.0 0.00 0.10 0.08 71 1017.4
20260508020021 53 0 0.0 0.0 0.00 0.10 0.08 71 1017.4
20260508015821 54 0 0.0 0.0 0.00 0.10 0.08 70 1017.3
20260508015620 54 0 0.0 0.0 0.00 0.10 0.08 69 1017.3
20260508015420 54 0 0.0 0.0 0.00 0.10 0.08 68 1017.2
20260508015221 54 0 0.0 0.0 0.00 0.10 0.08 67 1017.1
20260508015042 54 0 0.0 0.0 0.00 0.10 0.08 67 1017.1
20260508014820 54 0 0.0 0.0 0.00 0.10 0.08 66 1017.0
20260508014620 54 0 0.0 0.0 0.00 0.10 0.08 66 1017.0
20260508014420 55 0 0.0 0.0 0.00 0.10 0.08 65 1017.1
20260508014221 55 0 0.0 0.0 0.00 0.10 0.08 65 1017.0
20260508014021 55 0 0.0 0.0 0.00 0.10 0.08 64 1016.9
20260508013821 55 0 0.0 0.0 0.00 0.10 0.08 63 1016.9
20260508013642 55 0 0.0 0.0 0.00 0.10 0.08 62 1016.9
20260508013421 55 0 0.0 0.0 0.00 0.10 0.08 62 1016.9
20260508013221 56 0 0.0 0.0 0.00 0.10 0.08 62 1017.0
20260508013021 56 0 0.0 0.0 0.00 0.10 0.08 61 1016.9
20260508012821 56 0 0.0 0.0 0.00 0.10 0.08 61 1016.9
20260508012620 56 0 0.0 0.0 0.00 0.10 0.08 61 1016.9
20260508012420 56 0 0.0 0.0 0.00 0.10 0.08 60 1016.8
20260508012221 56 0 0.0 0.0 0.00 0.10 0.08 60 1016.9
20260508012020 56 0 0.0 0.0 0.00 0.10 0.08 60 1016.9
20260508011820 56 0 0.0 0.0 0.00 0.10 0.08 60 1016.9
20260508011620 56 0 0.0 0.0 0.00 0.10 0.08 60 1016.8
20260508011421 56 0 0.0 0.0 0.00 0.10 0.08 59 1016.8
20260508011221 56 0 0.0 0.0 0.00 0.10 0.08 59 1016.8
20260508011042 56 0 0.0 0.0 0.00 0.10 0.08 59 1016.7
20260508010842 57 0 0.0 0.0 0.00 0.10 0.08 59 1016.7
20260508010620 57 0 0.0 0.0 0.00 0.10 0.08 59 1016.8
20260508010421 57 0 0.0 0.0 0.00 0.10 0.08 59 1016.7
20260508010242 57 0 0.0 0.0 0.00 0.10 0.08 59 1016.7
20260508010021 57 0 0.0 0.0 0.00 0.10 0.08 59 1016.6
20260508005821 57 0 0.0 0.0 0.00 0.10 0.08 59 1016.6
20260508005621 57 0 0.0 0.0 0.00 0.10 0.08 59 1016.6
20260508005443 57 0 0.0 0.0 0.00 0.10 0.08 58 1016.5
20260508005221 57 0 0.0 0.0 0.00 0.10 0.08 58 1016.5
20260508005020 58 0 0.0 0.0 0.00 0.10 0.08 58 1016.4
20260508004842 58 0 0.0 0.0 0.00 0.10 0.08 57 1016.4
20260508004621 58 0 0.0 0.0 0.00 0.10 0.08 56 1016.4
20260508004442 58 0 0.0 0.0 0.00 0.10 0.08 56 1016.4
20260508004221 58 0 0.0 0.0 0.00 0.10 0.08 56 1016.4
20260508004021 59 0 0.0 0.0 0.00 0.10 0.08 56 1016.4
20260508003821 59 0 0.0 0.0 0.00 0.10 0.08 56 1016.4
20260508003621 59 0 0.0 0.0 0.00 0.10 0.08 56 1016.4
20260508003420 59 0 0.0 0.0 0.00 0.10 0.08 55 1016.4
20260508003221 59 274 0.0 1.0 0.00 0.11 0.08 55 1016.4
20260508003042 60 274 0.0 1.0 0.00 0.11 0.08 55 1016.3
20260508002821 60 274 0.0 1.0 0.00 0.11 0.08 55 1016.3
20260508002621 60 274 0.0 1.0 0.00 0.11 0.08 55 1016.2
20260508002421 60 274 0.0 1.0 0.00 0.11 0.08 54 1016.2
20260508002221 60 274 0.0 1.0 0.00 0.11 0.08 53 1016.2
20260508002042 60 274 0.0 1.0 0.00 0.11 0.08 53 1016.2
20260508001843 61 274 0.0 1.0 0.00 0.11 0.08 52 1016.1
20260508001621 61 274 0.0 1.0 0.00 0.11 0.08 52 1016.1
20260508001421 61 275 0.0 1.0 0.00 0.11 0.08 51 1016.1
20260508001221 61 311 0.0 2.0 0.00 0.11 0.08 51 1016.1
20260508001042 61 311 0.0 2.0 0.00 0.11 0.08 51 1016.1
20260508000841 61 311 0.0 2.0 0.00 0.11 0.08 50 1016.1
20260508000642 61 311 0.0 2.0 0.00 0.11 0.08 49 1016.1
20260508000420 61 14 0.0 2.0 0.00 0.11 0.08 50 1016.1
20260508000220 61 40 0.0 1.0 0.00 0.11 0.08 50 1016.1
20260508000021 61 27 0.0 2.0 0.00 0.11 0.08 50 1016.1
20260507235821 62 352 0.0 2.0 0.00 0.11 0.08 50 1016.1
20260507235621 62 294 0.0 3.0 0.00 0.11 0.08 49 1016.1
20260507235421 62 289 0.0 3.0 0.00 0.11 0.08 48 1016.1
20260507235221 62 290 0.0 3.0 0.00 0.11 0.08 48 1016.0
20260507235020 62 285 0.0 3.0 0.00 0.11 0.08 49 1016.0
20260507234820 62 281 1.0 3.0 0.00 0.11 0.08 47 1016.0
20260507234621 62 281 1.0 3.0 0.00 0.11 0.08 49 1016.0
20260507234442 62 283 1.0 3.0 0.00 0.11 0.08 49 1016.0
20260507234221 62 282 1.0 3.0 0.00 0.11 0.08 48 1016.0
20260507234021 62 283 1.0 3.0 0.00 0.11 0.08 47 1016.0
20260507233821 62 283 1.0 3.0 0.00 0.11 0.08 47 1015.9
20260507233643 62 282 1.0 4.0 0.00 0.11 0.08 48 1015.9
20260507233421 63 280 1.0 4.0 0.00 0.11 0.08 48 1015.8
20260507233221 63 282 1.0 5.0 0.00 0.11 0.08 47 1015.8
20260507233021 63 279 1.0 5.0 0.00 0.11 0.08 49 1015.8
20260507232821 63 283 1.0 5.0 0.00 0.11 0.08 48 1015.8
20260507232620 63 285 1.0 5.0 0.00 0.11 0.08 48 1015.8
20260507232420 63 287 1.0 5.0 0.00 0.11 0.08 48 1015.8
20260507232220 63 286 1.0 5.0 0.00 0.11 0.08 47 1015.9
20260507232021 63 287 1.0 5.0 0.00 0.11 0.08 47 1015.9
20260507231821 63 282 1.0 4.0 0.00 0.11 0.08 48 1015.9
20260507231620 63 281 1.0 4.0 0.00 0.11 0.08 48 1015.9
20260507231441 63 281 1.0 4.0 0.00 0.11 0.08 47 1015.9
20260507231221 63 280 1.0 4.0 0.00 0.11 0.08 47 1016.0
20260507231020 63 283 1.0 4.0 0.00 0.11 0.08 47 1016.1
20260507230821 63 284 1.0 4.0 0.00 0.11 0.08 47 1016.1
20260507230621 63 283 1.0 4.0 0.00 0.11 0.08 48 1016.1
20260507230421 64 282 1.0 4.0 0.00 0.11 0.08 47 1016.1
20260507230221 64 282 1.0 4.0 0.00 0.11 0.08 48 1016.1
20260507230042 64 278 1.0 4.0 0.00 0.12 0.08 47 1016.2
20260507225821 64 281 1.0 4.0 0.00 0.12 0.08 48 1016.2
20260507225642 64 284 1.0 4.0 0.00 0.12 0.08 47 1016.2
20260507225421 64 283 1.0 4.0 0.00 0.12 0.08 47 1016.2
20260507225221 64 285 1.0 4.0 0.00 0.12 0.08 47 1016.3
20260507225020 64 287 1.0 4.0 0.00 0.12 0.08 47 1016.2
20260507224821 64 288 1.0 4.0 0.00 0.12 0.08 47 1016.2
20260507224621 64 289 1.0 4.0 0.00 0.12 0.08 46 1016.3
20260507224421 64 292 1.0 4.0 0.00 0.12 0.08 48 1016.3
20260507224242 64 289 1.0 4.0 0.00 0.12 0.08 47 1016.2
20260507224020 64 289 1.0 4.0 0.00 0.12 0.08 48 1016.2
20260507223821 64 283 1.0 3.0 0.00 0.12 0.08 48 1016.2
20260507223620 64 286 1.0 4.0 0.00 0.12 0.08 47 1016.2
20260507223421 64 284 1.0 4.0 0.00 0.12 0.08 47 1016.2
20260507223220 64 303 1.0 4.0 0.00 0.12 0.08 47 1016.2
20260507223042 64 307 1.0 4.0 0.00 0.12 0.08 47 1016.1
20260507222821 64 314 1.0 4.0 0.00 0.12 0.08 48 1016.2
20260507222621 64 307 1.0 4.0 0.00 0.12 0.08 48 1016.1
20260507222421 64 299 1.0 4.0 0.00 0.12 0.08 47 1016.2
20260507222241 64 285 1.0 5.0 0.00 0.12 0.08 47 1016.1
20260507222021 64 295 1.0 5.0 0.00 0.12 0.08 48 1016.1
20260507221821 64 296 1.0 5.0 0.00 0.12 0.08 47 1016.1
20260507221621 64 299 1.0 5.0 0.00 0.12 0.08 47 1016.1
20260507221421 64 326 1.0 5.0 0.00 0.12 0.08 48 1016.1
20260507221222 64 19 1.0 4.0 0.00 0.12 0.08 47 1016.1
20260507221041 64 286 1.0 4.0 0.00 0.12 0.08 49 1016.1
20260507220821 64 286 1.0 4.0 0.00 0.12 0.08 49 1016.1
20260507220621 64 286 1.0 4.0 0.00 0.12 0.08 49 1016.0
20260507220421 64 281 1.0 5.0 0.00 0.12 0.08 48 1016.1
20260507220221 64 284 1.0 5.0 0.00 0.12 0.08 49 1016.1
20260507220021 64 289 1.0 5.0 0.00 0.12 0.08 48 1016.0
20260507215821 64 288 1.0 5.0 0.00 0.12 0.08 48 1016.0
20260507215620 64 286 1.0 5.0 0.00 0.12 0.08 49 1016.0
20260507215421 64 299 1.0 4.0 0.00 0.12 0.08 49 1015.9
20260507215221 64 289 1.0 4.0 0.00 0.12 0.08 50 1016.0
20260507215022 64 287 1.0 4.0 0.00 0.12 0.08 47 1016.0
20260507214821 64 326 1.0 5.0 0.00 0.12 0.08 48 1016.1
20260507214621 64 6 1.0 5.0 0.00 0.12 0.08 48 1016.1
20260507214442 64 23 1.0 5.0 0.00 0.12 0.08 48 1016.1
20260507214221 64 33 1.0 6.0 0.00 0.12 0.08 50 1016.1
20260507214042 64 36 1.0 6.0 0.00 0.13 0.08 50 1016.1
20260507213842 64 34 1.0 6.0 0.00 0.13 0.08 50 1016.0
20260507213621 64 37 1.0 6.0 0.00 0.13 0.08 50 1016.1
20260507213420 64 26 1.0 6.0 0.00 0.13 0.08 49 1016.0
20260507213221 64 13 1.0 5.0 0.00 0.13 0.08 49 1016.1
20260507213042 64 3 1.0 5.0 0.00 0.13 0.08 49 1016.1
20260507212820 64 337 1.0 5.0 0.00 0.13 0.08 47 1016.1
20260507212621 64 286 1.0 5.0 0.00 0.13 0.08 48 1016.1
20260507212421 64 277 2.0 4.0 0.00 0.13 0.08 49 1016.1
20260507212221 64 279 2.0 4.0 0.00 0.13 0.08 48 1016.0
20260507212021 64 279 2.0 4.0 0.00 0.13 0.08 48 1016.1
20260507211821 64 283 1.0 4.0 0.00 0.13 0.08 47 1016.0
20260507211621 64 285 1.0 4.0 0.00 0.13 0.08 47 1016.1
20260507211421 64 290 1.0 4.0 0.00 0.13 0.08 48 1016.0
20260507211221 64 288 1.0 4.0 0.00 0.13 0.08 49 1016.0
20260507211021 64 330 1.0 7.0 0.00 0.13 0.08 50 1016.0
20260507210821 64 8 1.0 7.0 0.00 0.13 0.08 50 1016.0
20260507210620 64 358 1.0 7.0 0.00 0.13 0.08 49 1016.0
20260507210421 64 317 1.0 7.0 0.00 0.13 0.08 47 1016.0
20260507210221 64 340 1.0 7.0 0.00 0.13 0.08 51 1016.1
20260507210021 64 307 1.0 5.0 0.00 0.13 0.08 49 1016.0
20260507205821 64 311 1.0 5.0 0.00 0.13 0.08 48 1016.0
20260507205621 64 306 1.0 5.0 0.00 0.13 0.08 47 1016.0
20260507205421 64 300 1.0 5.0 0.00 0.13 0.08 50 1016.0
20260507205243 64 296 1.0 5.0 0.00 0.13 0.08 46 1015.9
20260507205021 64 288 1.0 6.0 0.01 0.13 0.08 47 1016.0
20260507204822 64 281 1.0 6.0 0.01 0.13 0.08 48 1016.0
20260507204620 64 284 1.0 6.0 0.01 0.13 0.08 47 1016.0
20260507204442 64 283 1.0 6.0 0.01 0.13 0.08 48 1016.0
20260507204220 65 280 1.0 6.0 0.01 0.13 0.08 48 1016.0
20260507204021 65 281 1.0 5.0 0.01 0.13 0.08 49 1015.9
20260507203821 65 278 1.0 4.0 0.01 0.13 0.08 50 1016.0
20260507203621 64 287 1.0 5.0 0.01 0.13 0.08 49 1016.0
20260507203421 64 292 1.0 5.0 0.01 0.13 0.08 50 1016.0
20260507203242 64 319 1.0 5.0 0.01 0.13 0.08 48 1016.1
20260507203021 64 350 1.0 5.0 0.01 0.13 0.08 50 1016.0
20260507202820 64 12 1.0 5.0 0.01 0.13 0.08 49 1015.9
20260507202621 64 13 1.0 4.0 0.01 0.13 0.08 49 1016.0
20260507202421 64 24 1.0 5.0 0.01 0.13 0.08 48 1015.9
20260507202220 64 306 1.0 5.0 0.01 0.14 0.08 50 1015.9
20260507202042 64 288 1.0 8.0 0.01 0.14 0.08 46 1016.0
20260507201842 64 285 1.0 8.0 0.01 0.14 0.08 47 1016.0
20260507201621 65 284 1.0 8.0 0.01 0.14 0.08 48 1016.1
20260507201421 65 276 1.0 8.0 0.01 0.14 0.08 47 1016.1
20260507201221 65 271 1.0 8.0 0.01 0.14 0.08 46 1016.1
20260507201021 65 262 1.0 3.0 0.01 0.14 0.08 50 1016.1
20260507200822 65 264 1.0 3.0 0.01 0.14 0.08 51 1016.1
20260507200642 65 265 1.0 3.0 0.01 0.14 0.08 50 1016.1
20260507200420 65 262 1.0 3.0 0.01 0.14 0.08 51 1016.1
20260507200221 65 268 1.0 3.0 0.01 0.14 0.08 53 1016.2
20260507200021 64 266 1.0 4.0 0.01 0.14 0.08 52 1016.2
20260507195822 64 275 1.0 5.0 0.01 0.14 0.08 52 1016.2
20260507195621 64 277 1.0 5.0 0.01 0.14 0.08 52 1016.2
20260507195421 64 277 1.0 5.0 0.01 0.14 0.08 50 1016.2
20260507195221 64 279 2.0 5.0 0.01 0.14 0.08 49 1016.3
20260507195021 64 285 2.0 5.0 0.00 0.13 0.07 48 1016.3
20260507194821 64 282 1.0 5.0 0.00 0.13 0.07 51 1016.3
20260507194621 64 281 1.0 6.0 0.00 0.13 0.07 50 1016.3
20260507194442 64 283 1.0 6.0 0.00 0.13 0.07 49 1016.4
20260507194220 64 292 1.0 8.0 0.00 0.13 0.07 47 1016.4
20260507194042 64 289 1.0 8.0 0.00 0.13 0.07 51 1016.3
20260507193821 64 280 1.0 8.0 0.00 0.13 0.07 47 1016.3
20260507193642 64 281 1.0 8.0 0.00 0.13 0.07 49 1016.4
20260507193422 64 274 1.0 5.0 0.00 0.13 0.07 51 1016.4
20260507193221 64 279 1.0 5.0 0.00 0.13 0.07 49 1016.4
20260507193021 64 285 2.0 5.0 0.00 0.13 0.07 50 1016.4
20260507192821 64 287 2.0 5.0 0.00 0.13 0.07 49 1016.4
20260507192620 64 298 2.0 5.0 0.00 0.13 0.07 48 1016.4
20260507192421 64 292 2.0 5.0 0.00 0.13 0.07 50 1016.5
20260507192221 64 285 2.0 5.0 0.00 0.13 0.07 50 1016.5
20260507192021 64 284 2.0 5.0 0.00 0.13 0.07 49 1016.5
20260507191821 64 286 2.0 6.0 0.00 0.13 0.07 51 1016.5
20260507191621 64 280 2.0 6.0 0.00 0.13 0.07 48 1016.6
20260507191422 64 278 1.0 6.0 0.00 0.14 0.07 50 1016.5
20260507191220 64 277 1.0 6.0 0.00 0.14 0.07 51 1016.4
20260507191021 64 272 1.0 6.0 0.00 0.14 0.07 50 1016.5
20260507190821 64 267 1.0 4.0 0.00 0.14 0.07 50 1016.4
20260507190642 64 261 1.0 4.0 0.00 0.14 0.07 51 1016.5
20260507190421 64 254 1.0 3.0 0.00 0.14 0.07 51 1016.5
20260507190221 64 258 1.0 4.0 0.00 0.14 0.07 51 1016.4
20260507190021 64 276 2.0 6.0 0.00 0.14 0.07 51 1016.4
20260507185822 64 282 2.0 6.0 0.00 0.14 0.07 51 1016.5
20260507185621 64 286 2.0 6.0 0.00 0.14 0.07 51 1016.5
20260507185421 64 284 2.0 6.0 0.00 0.14 0.07 49 1016.5
20260507185221 64 283 2.0 6.0 0.00 0.14 0.07 49 1016.6
20260507185021 64 286 2.0 6.0 0.00 0.14 0.07 49 1016.6
20260507184821 64 283 1.0 8.0 0.00 0.14 0.07 50 1016.6
20260507184642 64 285 1.0 8.0 0.00 0.14 0.07 53 1016.6
20260507184421 64 290 1.0 8.0 0.00 0.14 0.07 52 1016.6
20260507184221 64 292 1.0 8.0 0.00 0.14 0.07 52 1016.6
20260507184021 64 288 1.0 8.0 0.00 0.14 0.07 51 1016.6
20260507183821 64 288 1.0 4.0 0.00 0.14 0.07 51 1016.5
20260507183621 64 276 1.0 3.0 0.00 0.14 0.07 51 1016.6
20260507183421 64 281 1.0 4.0 0.00 0.14 0.07 52 1016.6
20260507183221 63 283 1.0 5.0 0.00 0.14 0.07 51 1016.6
20260507183021 64 288 1.0 5.0 0.01 0.14 0.07 53 1016.6
20260507182821 64 299 1.0 5.0 0.01 0.14 0.07 52 1016.6
20260507182621 64 302 1.0 5.0 0.01 0.14 0.07 50 1016.7
20260507182420 64 326 1.0 5.0 0.01 0.14 0.07 52 1016.7
20260507182221 64 329 1.0 5.0 0.01 0.15 0.07 52 1016.6
20260507182021 64 9 1.0 4.0 0.01 0.15 0.07 55 1016.5
20260507181821 64 23 1.0 4.0 0.01 0.15 0.07 53 1016.5
20260507181643 64 16 1.0 4.0 0.01 0.15 0.07 54 1016.5
20260507181421 64 23 1.0 4.0 0.01 0.15 0.07 53 1016.6
20260507181221 63 46 1.0 4.0 0.01 0.15 0.07 52 1016.6
20260507181021 63 30 1.0 4.0 0.01 0.15 0.07 54 1016.6
20260507180842 63 295 1.0 5.0 0.01 0.15 0.07 52 1016.7
20260507180622 63 283 1.0 5.0 0.01 0.15 0.07 52 1016.6
20260507180421 63 272 1.0 5.0 0.01 0.15 0.07 51 1016.6
20260507180221 63 270 2.0 5.0 0.01 0.15 0.07 50 1016.7
20260507180021 63 268 1.0 5.0 0.01 0.15 0.07 50 1016.7
20260507175822 63 266 1.0 5.0 0.01 0.15 0.07 53 1016.7
20260507175621 63 269 2.0 5.0 0.01 0.15 0.07 52 1016.7
20260507175443 63 273 2.0 5.0 0.01 0.15 0.07 51 1016.7
20260507175221 63 282 2.0 5.0 0.01 0.15 0.07 52 1016.8
20260507175021 63 284 2.0 5.0 0.01 0.15 0.07 51 1016.8
20260507174843 63 286 2.0 4.0 0.01 0.15 0.07 51 1016.8
20260507174621 63 285 2.0 4.0 0.01 0.15 0.07 51 1016.8
20260507174421 63 280 2.0 6.0 0.01 0.15 0.07 51 1016.9
20260507174221 63 278 2.0 6.0 0.01 0.15 0.07 51 1016.9
20260507174021 63 276 2.0 7.0 0.01 0.15 0.07 53 1016.9
20260507173821 63 276 1.0 7.0 0.01 0.15 0.07 50 1016.9
20260507173621 63 276 1.0 7.0 0.01 0.15 0.07 50 1017.0
20260507173442 63 279 1.0 7.0 0.01 0.15 0.07 52 1016.9
20260507173221 63 282 1.0 7.0 0.01 0.16 0.07 53 1017.0
20260507173021 63 296 1.0 5.0 0.00 0.15 0.06 52 1017.0
20260507172821 63 307 1.0 6.0 0.00 0.15 0.06 52 1017.1
20260507172621 63 24 1.0 6.0 0.00 0.15 0.06 53 1017.1
20260507172420 63 29 1.0 6.0 0.00 0.15 0.06 55 1017.1
20260507172221 63 30 2.0 6.0 0.01 0.15 0.06 53 1017.2
20260507172021 63 34 2.0 6.0 0.01 0.15 0.06 52 1017.2
20260507171821 63 50 2.0 5.0 0.01 0.15 0.06 51 1017.2
20260507171621 63 55 2.0 5.0 0.01 0.15 0.06 52 1017.2
20260507171421 63 57 2.0 5.0 0.01 0.15 0.06 52 1017.2
20260507171242 63 53 1.0 5.0 0.01 0.15 0.06 52 1017.3
20260507171021 63 49 1.0 5.0 0.01 0.15 0.06 51 1017.3
20260507170821 63 17 1.0 5.0 0.01 0.15 0.06 52 1017.4
20260507170621 63 341 1.0 5.0 0.01 0.15 0.06 54 1017.5
20260507170421 63 309 1.0 4.0 0.01 0.15 0.06 51 1017.5
20260507170221 63 346 2.0 4.0 0.01 0.15 0.06 53 1017.5
20260507170042 64 307 2.0 4.0 0.01 0.15 0.06 51 1017.5
20260507165821 64 286 2.0 6.0 0.01 0.15 0.06 50 1017.6
20260507165642 64 283 1.0 6.0 0.01 0.15 0.06 53 1017.6
20260507165421 63 284 1.0 6.0 0.01 0.15 0.06 54 1017.6
20260507165242 63 274 1.0 6.0 0.01 0.15 0.06 52 1017.6
20260507165022 63 284 1.0 6.0 0.01 0.15 0.06 54 1017.5
20260507164821 63 23 1.0 6.0 0.01 0.15 0.06 52 1017.5
20260507164643 63 51 1.0 5.0 0.01 0.15 0.06 57 1017.6
20260507164421 63 40 1.0 5.0 0.01 0.15 0.06 55 1017.5
20260507164221 63 23 1.0 5.0 0.01 0.15 0.06 53 1017.5
20260507164022 63 28 1.0 5.0 0.01 0.15 0.06 53 1017.6
20260507163821 63 351 1.0 5.0 0.01 0.15 0.06 53 1017.7
20260507163621 63 7 2.0 5.0 0.01 0.16 0.06 53 1017.7
20260507163421 63 22 2.0 5.0 0.01 0.16 0.06 55 1017.7
20260507163222 63 41 2.0 5.0 0.01 0.16 0.06 54 1017.8
20260507163021 63 38 2.0 5.0 0.01 0.16 0.06 51 1017.8
20260507162821 63 49 2.0 5.0 0.01 0.16 0.06 55 1017.9
20260507162621 63 46 2.0 5.0 0.01 0.16 0.06 53 1017.9
20260507162421 63 23 2.0 5.0 0.01 0.16 0.06 52 1018.0
20260507162221 63 301 2.0 6.0 0.00 0.15 0.05 54 1017.9
20260507162021 63 287 2.0 6.0 0.00 0.15 0.05 52 1017.8
20260507161821 63 282 2.0 7.0 0.00 0.15 0.05 56 1017.8
20260507161621 62 283 2.0 7.0 0.00 0.15 0.05 53 1017.7
20260507161421 62 294 2.0 7.0 0.00 0.15 0.05 55 1017.9
20260507161221 62 295 2.0 7.0 0.00 0.15 0.05 53 1017.8
20260507161021 62 292 2.0 7.0 0.00 0.15 0.05 53 1017.7
20260507160821 62 341 2.0 6.0 0.00 0.15 0.05 55 1017.7
20260507160621 62 3 2.0 6.0 0.00 0.15 0.05 51 1017.7
20260507160421 62 13 2.0 7.0 0.00 0.15 0.05 53 1017.6
20260507160221 62 24 2.0 8.0 0.00 0.15 0.05 54 1017.7
20260507160021 62 28 2.0 8.0 0.00 0.15 0.05 55 1017.7